Terminal Aerodrome Forecast
Issued by NWS

Home | Current Version | Previous Version | Text Only | Print | Product List | Glossary Off
Versions: 1 2 3 4 5 6 7 8 9 10 11 12 13 14 15 16 17

464
FTUS41 KCLE 282326
TAFFDY
TAF
KFDY 282326Z 2900/2924 04008KT P6SM OVC015
      TEMPO 2900/2901 -SHRA
     FM290200 02004KT P6SM OVC007
     FM290500 VRB03KT 4SM BR OVC007
     FM291000 34005KT 1 1/2SM BR OVC003
     FM291500 01004KT P6SM OVC007
     FM291600 02006KT P6SM OVC015
     FM292300 04008KT P6SM OVC035=

USA.gov is the U.S. government's official web portal to all federal, state and local government web resources and services.